ABY542 OMSJ-OPKC

Flight info

Callsign ABY542
Flight time N/A
Altitude 37000
Route IVURO M677 LALDO B505 NADSO B524 ALPOR G216 LAKIV
Aircraft A320/M-SDE3FGHIRWY/LB1

Departure

Time 2026-04-29 12:47
Airport Sharjah International Airport (OMSJ)

Arrival

Time N/A
Airport Jinnah International Airport (OPKC)
Time Latitude Longitude Altitude Speed Heading
2026-04-29 12:20 25.32628 55.51452 115 ft 0 kts 301°
2026-04-29 12:35 25.32626 55.51455 111 ft 2 kts 301°
2026-04-29 12:36 25.32618 55.51471 112 ft 2 kts 285°
2026-04-29 12:36 25.32618 55.51489 112 ft 2 kts 260°
2026-04-29 12:36 25.32618 55.51508 113 ft 2 kts 356°
2026-04-29 12:36 25.32604 55.51504 113 ft 1 kts 28°
2026-04-29 12:37 25.32602 55.51503 113 ft 0 kts 32°
2026-04-29 12:41 25.32606 55.51505 112 ft 4 kts 32°
2026-04-29 12:41 25.32680 55.51557 114 ft 16 kts 32°
2026-04-29 12:42 25.32726 55.51591 115 ft 1 kts 38°
2026-04-29 12:42 25.32723 55.51624 115 ft 8 kts 117°
2026-04-29 12:42 25.32679 55.51695 115 ft 16 kts 122°
2026-04-29 12:42 25.32602 55.51829 114 ft 24 kts 120°
2026-04-29 12:43 25.32508 55.51990 115 ft 25 kts 123°
2026-04-29 12:43 25.32410 55.52161 115 ft 27 kts 122°
2026-04-29 12:43 25.32370 55.52301 114 ft 12 kts 50°
2026-04-29 12:43 25.32423 55.52328 115 ft 12 kts 32°
2026-04-29 12:44 25.32469 55.52404 114 ft 14 kts 86°
2026-04-29 12:44 25.32425 55.52501 115 ft 14 kts 124°
2026-04-29 12:44 25.32369 55.52584 114 ft 15 kts 128°
2026-04-29 12:44 25.32286 55.52728 112 ft 24 kts 125°
2026-04-29 12:45 25.32187 55.52895 113 ft 28 kts 121°
2026-04-29 12:45 25.32080 55.53081 115 ft 29 kts 123°
2026-04-29 12:45 25.31969 55.53272 114 ft 30 kts 120°
2026-04-29 12:45 25.31907 55.53430 116 ft 18 kts 70°
2026-04-29 12:46 25.31997 55.53490 115 ft 13 kts 32°
2026-04-29 12:46 25.32090 55.53506 118 ft 18 kts 337°
2026-04-29 12:46 25.32154 55.53404 118 ft 18 kts 304°
2026-04-29 12:46 25.32324 55.53117 117 ft 79 kts 302°
2026-04-29 12:47 25.32727 55.52405 115 ft 137 kts 303°
2026-04-29 12:47 25.33325 55.51371 166 ft 177 kts 302°
2026-04-29 12:47 25.34003 55.50222 698 ft 181 kts 288°
2026-04-29 12:47 25.34592 55.48981 1229 ft 186 kts 296°
2026-04-29 12:48 25.35247 55.47736 1894 ft 188 kts 302°
2026-04-29 12:48 25.35979 55.46506 2387 ft 200 kts 303°
2026-04-29 12:48 25.36791 55.45157 2649 ft 220 kts 303°
2026-04-29 12:48 25.37662 55.43692 3123 ft 232 kts 302°
2026-04-29 12:49 25.38540 55.42197 3745 ft 233 kts 304°
2026-04-29 12:49 25.39742 55.41011 4373 ft 237 kts 338°
2026-04-29 12:49 25.41366 55.40825 5007 ft 240 kts 14°
2026-04-29 12:49 25.42884 55.41645 5648 ft 243 kts 32°
2026-04-29 12:50 25.44301 55.42635 6272 ft 245 kts 32°
2026-04-29 12:50 25.45740 55.43656 6902 ft 247 kts 33°
2026-04-29 12:50 25.47203 55.44693 7587 ft 250 kts 32°
2026-04-29 12:50 25.48676 55.45729 8276 ft 253 kts 32°
2026-04-29 12:51 25.50171 55.46780 8971 ft 256 kts 32°
2026-04-29 12:51 25.51630 55.47926 9613 ft 259 kts 47°
2026-04-29 12:51 25.52531 55.49632 10252 ft 261 kts 77°
2026-04-29 12:51 25.52561 55.51661 10597 ft 276 kts 107°
2026-04-29 12:52 25.51660 55.53611 10794 ft 297 kts 123°
2026-04-29 12:52 25.50502 55.55612 10951 ft 320 kts 123°
2026-04-29 12:52 25.49300 55.57785 11085 ft 343 kts 116°
2026-04-29 12:52 25.48478 55.60337 11380 ft 358 kts 108°
2026-04-29 12:53 25.47719 55.62992 11962 ft 364 kts 108°
2026-04-29 12:53 25.46962 55.65677 12593 ft 367 kts 108°
2026-04-29 12:53 25.46203 55.68381 13220 ft 371 kts 108°
2026-04-29 12:53 25.45433 55.71118 13797 ft 374 kts 108°
2026-04-29 12:54 25.44652 55.73885 14397 ft 377 kts 108°
2026-04-29 12:54 25.43866 55.76668 14972 ft 381 kts 108°
2026-04-29 12:54 25.43072 55.79469 15531 ft 384 kts 108°
2026-04-29 12:54 25.42263 55.82294 16097 ft 387 kts 108°
2026-04-29 12:55 25.41443 55.85146 16632 ft 390 kts 108°
2026-04-29 12:55 25.40620 55.88014 17163 ft 393 kts 108°